sat.trackr.live / text

‹ back to catalog

2025-055E

NORAD 63295 · 2025-055E

PAYLOAD ACTIVE UNKNOWN

§ Identity

Operator
Country
PRC
Launch date
2025-03-17
Launch site
JSC
Launch vehicle
Mass (kg)
RCS (m²)

External: N2YO · Heavens-Above · Gunter

§ Orbital elements

Epoch: 2026-05-25T04:45:19.327968Z

Period
94.97 min
Inclination
97.6474°
Eccentricity
0.0013286
Mean motion
15.16279804 rev/d
Perigee alt
507.9 km
Apogee alt
526.3 km
Semi-major
6,895.2 km
B*
4.5812e-4
RAAN
284.7130°
Arg perigee
209.0233°
Mean anomaly
151.0262°
Rev number
6,552

§ Raw data

2025-055E1 63295U 25055E   26145.19814037  .00008823  00000+0  45812-3 0  99962 63295  97.6474 284.7130 0013286 209.0233 151.0262 15.16279804 65526

JSON: /api/v1/satellites/63295 · /tle

For live sub-satellite position, see the globe view (requires WebGL).

§ Visibility from observer

Set your observer location to see the next 7 days of passes ≥ 10°. The values pass through the URL so the page stays shareable.

No JS? Fill the form by hand. The geolocation button needs JavaScript.